Location: DARK SKY Beskydy - Park tmavé oblohy, www.darkskybeskydy.cz
(49.4926°N, 18.5016°E)
Time: 11:30:48
(UTC+02:00)

BlueWalker 3 - Pass Details

Date: 21 June 2024
Orbit: 480 x 491 km, 53.2° (Epoch: 23 July)

Event Time Altitude Azimuth Distance (km) Brightness Sun altitude
Rises 03:51:25 0° 291° (WNW) 2,538 5.3 -6.5°
Reaches altitude 10° 03:53:49 10° 278° (W) 1,656 4.2 -6.2°
Maximum altitude 03:56:56 25° 221° (SW) 994 2.9 -5.9°
Drops below altitude 10° 04:00:02 10° 164° (SSE) 1,650 4.3 -5.5°
Sets 04:02:26 0° 151° (SSE) 2,527 5.3 -5.2°
